Wind_Speed
19 19 19 19 19 20 20 20 21 22 22 22 22 21 21 21 20 20 20 21 22 22 22 23 23 24 23 23 24 24 24 24 24 24 24 24 24 24
21 21 21 21 21 21 22 22 22 23 23 24 24 23 23 23 22 21 22 22 22 23 24 24 25 25 25 26 26 26 25 26 25 25 25 25 26 26
22 23 23 23 23 23 23 23 23 23 23 23 23 23 24 24 24 24 23 23 24 24 25 25 26 27 27 27 27 27 27 27 27 26 26 26 26 26
24 24 25 25 25 25 25 26 26 26 26 26 25 25 25 25 25 25 25 25 26 27 27 27 27 28 28 28 28 28 28 28 28 27 27 27 27 27
27 27 27 27 27 27 27 27 28 28 28 27 27 27 26 26 26 26 27 26 27 28 28 28 29 28 28 29 29 29 29 29 29 29 28 28 28 28
29 29 29 29 29 29 29 29 29 28 28 28 28 28 27 27 27 27 27 28 29 29 28 29 29 29 29 29 29 30 30 30 30 30 30 30 29 29
31 31 31 31 30 30 30 30 30 30 29 30 30 30 29 28 28 28 28 29 30 29 30 30 30 30 29 29 30 30 30 30 30 30 30 30 30 30
33 33 32 32 31 31 31 31 31 31 31 31 31 31 30 30 30 30 30 30 31 31 31 31 31 31 31 31 31 31 31 31 31 31 31 30 30 31
35 35 35 34 34 33 32 32 32 31 31 31 30 30 30 31 32 31 31 32 32 32 32 32 32 32 32 32 32 31 32 31 31 31 31 31 31 30
37 37 37 36 35 34 33 33 33 33 32 32 31 32 32 32 33 33 33 33 33 32 33 33 33 33 33 33 33 32 32 32 32 31 31 31 31 30
38 38 38 37 37 35 34 34 34 34 34 34 33 34 34 34 34 34 34 34 34 33 33 34 34 33 33 33 33 32 32 32 32 31 31 31 31 31
39 38 38 37 37 36 36 36 36 36 36 35 35 35 35 35 35 35 35 35 35 34 34 34 33 34 33 33 33 33 32 32 31 31 32 32 31 31
38 38 38 39 39 39 38 38 38 38 38 38 37 37 37 36 36 35 34 35 35 34 34 34 34 34 34 33 33 33 33 32 32 31 32 32 32 31
39 39 39 39 39 40 40 40 40 40 40 40 39 39 39 38 37 36 36 35 35 34 34 34 34 34 33 32 32 33 32 31 31 31 31 31 31 30
40 40 40 39 40 40 40 40 41 42 41 41 40 40 39 39 37 37 36 36 35 34 34 33 33 32 32 31 31 31 31 31 30 30 30 30 30 30
40 40 40 40 40 40 40 40 40 40 40 40 40 40 40 39 38 37 36 35 35 34 33 32 32 31 31 30 30 29 29 29 29 29 30 29 29 29
39 40 40 41 40 40 39 39 39 38 38 38 38 38 39 38 38 37 36 36 34 33 32 31 31 30 30 30 29 29 29 28 28 28 28 27 27 28
39 39 40 40 40 39 39 38 37 36 36 36 36 37 37 37 36 36 36 35 34 33 32 31 30 30 30 30 29 29 29 28 27 27 26 26 27 27
37 38 38 37 37 38 37 35 35 35 35 35 35 35 35 35 35 35 35 34 33 32 31 30 30 30 30 30 29 29 29 28 27 27 26 26 26 27
36 35 35 35 36 36 35 34 34 34 33 34 34 34 34 34 34 33 33 33 33 33 32 32 31 31 30 30 29 29 28 27 27 27 27 27 27 26
34 34 34 34 34 35 34 34 33 33 33 33 32 32 32 32 32 32 32 33 33 32 32 32 32 32 31 31 30 29 28 27 27 27 27 27 27 27
32 32 33 32 32 33 32 32 32 33 33 33 32 32 31 31 31 32 32 32 32 32 32 32 32 32 31 31 30 30 29 28 27 27 27 27 27 26
31 31 32 31 31 30 31 32 32 33 32 33 33 32 32 32 31 31 31 32 32 32 32 32 32 31 31 31 31 30 30 29 29 29 28 27 27 27
Wind_Direction
289 288 287 285 288 290 289 289 289 289 289 290 287 285 283 282 279 277 277 277 277 278 278 280 281 282 280 281 282 282 282 283 285 286 286 286 287 286
286 285 288 287 287 288 288 286 287 288 285 286 285 284 283 283 279 279 279 278 278 278 279 280 281 281 281 281 282 282 282 284 285 285 286 286 286 285
285 285 286 285 286 287 287 285 285 285 285 286 286 282 281 281 281 279 279 278 278 279 280 281 282 282 282 280 281 281 282 284 285 285 286 288 289 288
285 286 286 285 285 286 286 286 285 283 283 285 286 284 282 282 282 280 278 278 278 279 279 281 282 282 281 281 281 281 282 283 284 285 286 287 288 289
284 284 285 284 284 284 285 284 284 284 283 283 283 284 282 283 284 282 282 280 280 280 280 281 281 281 281 281 280 281 281 281 282 284 285 286 287 287
282 283 283 283 283 283 282 283 283 282 282 281 281 281 281 281 281 282 282 281 281 281 280 280 280 281 282 282 282 281 281 280 282 283 284 285 286 286
280 282 281 281 282 282 282 282 281 282 281 281 281 281 282 281 280 280 279 279 279 280 281 281 282 283 283 283 283 283 282 282 282 282 283 284 284 285
279 280 280 280 281 281 281 280 279 280 280 279 279 279 280 280 279 278 278 278 279 279 280 280 281 283 283 282 282 282 282 282 282 282 282 283 284 284
277 278 278 279 279 279 279 279 278 277 278 278 278 278 279 278 279 279 278 278 278 279 279 280 281 282 283 281 281 281 281 280 280 280 281 282 283 283
277 278 278 278 278 277 277 277 278 277 277 277 277 277 278 278 279 279 278 277 278 279 279 280 280 281 281 281 281 281 281 280 279 279 279 280 282 282
277 277 278 278 276 275 276 278 278 278 278 277 276 277 277 277 278 278 278 277 277 278 279 280 281 281 280 281 281 281 280 280 279 278 279 279 281 282
277 276 276 277 275 275 276 277 277 278 278 277 276 274 275 277 278 277 277 277 277 278 279 279 280 280 280 280 281 281 280 279 279 280 279 279 280 281
278 278 278 279 278 277 276 276 275 275 276 275 274 275 276 276 276 276 277 277 278 279 279 279 280 281 280 279 279 280 281 279 279 280 280 281 281 280
278 279 280 280 278 277 276 275 274 273 273 274 274 274 275 275 275 276 277 277 277 279 279 279 280 281 280 278 279 279 279 279 279 279 279 280 280 279
279 279 279 279 278 277 276 276 274 272 272 271 272 273 273 274 273 274 274 275 276 277 278 279 279 280 279 278 278 279 280 279 278 278 279 279 278 279
279 279 279 279 278 278 276 276 274 272 271 271 270 270 271 272 272 272 274 274 275 275 276 277 279 278 278 277 278 279 280 279 278 279 279 278 278 278
280 279 279 278 277 277 275 274 273 272 271 270 270 269 270 270 271 272 272 273 273 273 273 274 275 276 277 276 277 277 278 278 277 277 278 278 278 278
282 281 281 279 277 275 274 273 272 271 270 270 270 270 271 271 271 271 271 272 273 272 272 271 271 272 274 274 275 276 277 277 277 278 278 277 277 277
284 283 282 279 277 275 274 273 272 271 270 270 271 271 271 271 270 270 270 270 271 272 270 270 270 270 271 272 272 274 276 277 278 279 278 277 277 276
284 283 282 279 277 275 273 271 270 269 269 270 270 270 269 269 269 267 267 268 268 269 269 270 271 271 270 269 270 271 273 275 275 276 276 276 276 275
283 282 281 279 276 274 272 270 268 267 268 268 269 269 269 269 268 266 266 266 267 267 267 268 270 270 270 269 269 271 272 273 274 275 274 274 274 274
282 281 279 279 276 272 270 268 267 266 267 268 268 267 267 268 268 266 266 266 265 265 266 266 267 267 268 269 270 270 271 272 273 274 273 272 273 274
282 282 279 278 277 274 271 269 269 268 268 268 268 266 265 265 266 267 267 267 266 266 266 264 265 266 267 269 269 269 270 271 273 274 271 270 271 272
Height
5884 5883 5881 5880 5879 5878 5877 5876 5875 5874 5873 5871 5870 5868 5867 5866 5866 5865 5864 5864 5863 5862 5862 5861 5860 5860 5859 5858 5857 5856 5855 5854 5853 5852 5850 5849 5848 5846
5879 5878 5876 5875 5874 5873 5871 5870 5869 5868 5867 5866 5864 5863 5862 5861 5860 5859 5858 5857 5857 5856 5856 5855 5854 5853 5852 5852 5850 5850 5848 5847 5846 5845 5844 5843 5841 5840
5873 5872 5871 5869 5868 5867 5866 5865 5863 5862 5861 5859 5858 5857 5856 5855 5854 5853 5852 5851 5850 5850 5849 5848 5848 5847 5846 5845 5844 5843 5842 5841 5840 5839 5837 5836 5835 5833
5867 5866 5865 5864 5862 5861 5859 5858 5857 5855 5854 5853 5852 5850 5849 5848 5847 5846 5845 5844 5844 5843 5842 5841 5841 5840 5839 5837 5836 5835 5835 5834 5833 5832 5830 5829 5828 5826
5860 5859 5858 5857 5856 5854 5853 5851 5850 5848 5847 5846 5845 5844 5842 5841 5840 5839 5838 5837 5836 5835 5834 5834 5833 5832 5831 5830 5829 5828 5827 5826 5825 5824 5823 5821 5820 5818
5853 5852 5851 5849 5848 5847 5845 5844 5842 5841 5839 5838 5837 5836 5835 5834 5833 5831 5830 5830 5829 5828 5827 5826 5825 5824 5823 5822 5821 5820 5819 5818 5817 5816 5815 5814 5812 5810
5845 5844 5843 5841 5840 5839 5837 5836 5834 5833 5832 5830 5829 5828 5827 5826 5825 5824 5823 5821 5820 5820 5819 5818 5817 5816 5815 5814 5813 5812 5811 5810 5808 5807 5806 5805 5804 5802
5837 5835 5834 5833 5831 5830 5828 5827 5826 5825 5823 5822 5821 5820 5819 5818 5817 5816 5815 5814 5813 5812 5811 5810 5809 5808 5807 5806 5805 5803 5802 5801 5800 5799 5797 5796 5795 5794
5827 5826 5825 5824 5822 5821 5820 5818 5817 5815 5814 5813 5812 5811 5810 5809 5808 5807 5806 5805 5804 5803 5802 5801 5800 5799 5798 5796 5796 5795 5794 5793 5791 5790 5789 5787 5786 5785
5817 5816 5815 5813 5812 5811 5810 5809 5808 5807 5805 5804 5803 5803 5802 5800 5799 5798 5797 5797 5796 5794 5793 5792 5791 5790 5788 5787 5786 5785 5784 5783 5782 5781 5780 5779 5777 5776
5807 5805 5804 5803 5802 5801 5800 5799 5798 5797 5796 5795 5794 5793 5792 5790 5789 5788 5788 5787 5786 5785 5784 5783 5782 5781 5779 5778 5777 5776 5775 5774 5773 5772 5771 5770 5768 5767
5796 5795 5793 5793 5792 5790 5790 5789 5788 5787 5786 5784 5783 5782 5781 5780 5779 5778 5778 5777 5776 5775 5774 5773 5772 5771 5770 5769 5767 5766 5765 5764 5764 5763 5762 5761 5759 5758
5784 5783 5782 5781 5780 5779 5779 5778 5777 5776 5775 5774 5773 5772 5771 5770 5769 5768 5767 5766 5766 5765 5764 5763 5762 5761 5760 5759 5757 5756 5756 5755 5754 5753 5752 5751 5750 5749
5773 5771 5770 5769 5768 5767 5767 5766 5765 5764 5763 5762 5762 5761 5760 5759 5758 5757 5757 5756 5755 5755 5754 5753 5752 5751 5750 5748 5747 5746 5746 5745 5744 5744 5743 5742 5741 5741
5761 5760 5758 5757 5756 5755 5754 5753 5752 5752 5751 5751 5750 5749 5748 5747 5747 5747 5746 5745 5745 5744 5743 5742 5742 5741 5740 5739 5738 5737 5736 5736 5735 5735 5734 5733 5732 5732
5748 5747 5745 5744 5743 5742 5741 5740 5739 5739 5738 5738 5738 5737 5736 5736 5736 5735 5735 5734 5734 5734 5733 5732 5732 5731 5731 5730 5729 5729 5728 5727 5726 5725 5725 5724 5723 5722
5735 5734 5733 5731 5730 5729 5729 5728 5727 5726 5726 5726 5725 5725 5725 5724 5724 5724 5724 5724 5723 5723 5723 5723 5723 5722 5722 5721 5720 5720 5719 5718 5717 5717 5716 5715 5714 5714
5722 5721 5719 5718 5717 5716 5715 5715 5714 5714 5714 5714 5713 5713 5713 5713 5713 5713 5713 5713 5713 5713 5713 5713 5713 5713 5713 5712 5712 5711 5710 5710 5709 5708 5707 5707 5707 5706
5710 5708 5707 5705 5704 5703 5702 5702 5702 5702 5702 5702 5702 5702 5702 5701 5701 5702 5702 5702 5703 5703 5703 5703 5703 5703 5703 5703 5703 5702 5702 5701 5700 5700 5699 5699 5699 5698
5698 5696 5695 5694 5692 5691 5691 5691 5691 5691 5691 5691 5690 5690 5690 5690 5690 5691 5691 5692 5692 5692 5693 5693 5694 5694 5693 5694 5693 5693 5692 5692 5692 5691 5691 5690 5690 5690
5687 5685 5684 5682 5681 5680 5679 5679 5679 5680 5680 5680 5680 5679 5679 5680 5680 5680 5681 5682 5682 5682 5683 5683 5684 5684 5683 5684 5684 5684 5683 5683 5683 5682 5682 5682 5681 5681
5677 5675 5673 5671 5670 5669 5668 5668 5668 5669 5669 5669 5669 5669 5669 5669 5669 5670 5670 5671 5672 5672 5673 5673 5673 5673 5674 5674 5674 5674 5674 5674 5674 5673 5673 5673 5672 5672
5666 5665 5663 5661 5660 5659 5658 5658 5658 5658 5658 5658 5658 5658 5659 5659 5659 5659 5660 5661 5661 5661 5662 5662 5662 5663 5664 5664 5664 5665 5665 5664 5664 5664 5664 5663 5663 5663